Location: Unspecified
(38.6830°S, 0.0000°E)
Time: 11:18:23
(UTC+00:00)

Tiangong 2 - Visible Passes

Search period start: 20 May 2019 00:00
Search period end: 30 May 2019 00:00
Orbit: 379 x 387 km, 42.8° (Epoch: 20 May)

Date Brightness Start Highest point End Pass type
(mag) Time Alt. Az. Time Alt. Az. Time Alt. Az.
23 May 3.2 06:26:34 10° NNW 06:29:24 29° NNE 06:32:16 10° E visible
24 May 4.0 05:27:28 10° N 05:29:32 16° NE 05:31:38 10° ENE visible
25 May 2.0 06:02:47 10° NW 06:05:55 50° NNE 06:09:04 10° ESE visible
26 May 2.9 05:05:42 27° NNE 05:05:58 28° NNE 05:08:48 10° E visible
27 May 1.1 05:41:13 35° WNW 05:42:28 85° NNE 05:45:43 10° ESE visible
28 May 3.8 04:44:21 20° E 04:44:21 20° E 04:45:35 10° ESE visible
28 May 1.6 06:16:33 14° W 06:19:11 46° S 06:22:21 10° ESE visible
29 May 1.6 05:19:33 53° SSE 05:19:33 53° SSE 05:22:15 10° ESE visible
